Satellite: NOAA-12 Catalog number: 21263 Epoch time: 12362.34955223 Element set: 662 Inclination: 098.7133 deg RA of node: 022.9685 deg Eccentricity: 0.0013960 Arg of perigee: 004.0312 deg Mean anomaly: 356.0980 deg Mean motion: 14.25538552 rev/day Decay rate: 4.2e-07 rev/day^2 Epoch rev: 12407 Checksum: 272
Satellite: MET-3/5 Catalog number: 21655 Epoch time: 12362.18329134 Element set: 582 Inclination: 082.5553 deg RA of node: 015.8263 deg Eccentricity: 0.0013384 Arg of perigee: 194.9141 deg Mean anomaly: 165.1588 deg Mean motion: 13.17042066 rev/day Decay rate: 6.9e-07 rev/day^2 Epoch rev: 2729 Checksum: 298
Satellite: MET-2/21 Catalog number: 22782 Epoch time: 12362.52646771 Element set: 621 Inclination: 082.5483 deg RA of node: 239.1067 deg Eccentricity: 0.0021656 Arg of perigee: 332.9441 deg Mean anomaly: 076.3164 deg Mean motion: 13.83696622 rev/day Decay rate: 1.0e-08 rev/day^2 Epoch rev: 97590 Checksum: 307
Satellite: OKEAN-4 Catalog number: 23317 Epoch time: 12362.88767578 Element set: 94 Inclination: 082.5390 deg RA of node: 210.0615 deg Eccentricity: 0.0023052 Arg of perigee: 072.7752 deg Mean anomaly: 287.5984 deg Mean motion: 14.84173364 rev/day Decay rate: 7.22e-06 rev/day^2 Epoch rev: 98353 Checksum: 320
Satellite: NOAA-14 Catalog number: 23455 Epoch time: 12362.31118116 Element set: 143 Inclination: 098.8162 deg RA of node: 083.2777 deg Eccentricity: 0.0010107 Arg of perigee: 122.9265 deg Mean anomaly: 237.2881 deg Mean motion: 14.13887230 rev/day Decay rate: -7.0e-08 rev/day^2 Epoch rev: 92808 Checksum: 287
Satellite: NOAA-15 Catalog number: 25338 Epoch time: 12366.48486610 Element set: 535 Inclination: 098.7125 deg RA of node: 351.7365 deg Eccentricity: 0.0010317 Arg of perigee: 256.7267 deg Mean anomaly: 103.3272 deg Mean motion: 14.25162561 rev/day Decay rate: 1.33e-06 rev/day^2 Epoch rev: 73413 Checksum: 290
Satellite: RESURS Catalog number: 25394 Epoch time: 12362.87662505 Element set: 268 Inclination: 098.3422 deg RA of node: 341.1211 deg Eccentricity: 0.0002129 Arg of perigee: 064.3727 deg Mean anomaly: 326.9587 deg Mean motion: 14.24314675 rev/day Decay rate: 9.0e-08 rev/day^2 Epoch rev: 75197 Checksum: 302
Satellite: FENGYUN1 Catalog number: 25730 Epoch time: 12362.06184822 Element set: 771 Inclination: 098.8648 deg RA of node: 317.8925 deg Eccentricity: 0.0020900 Arg of perigee: 168.3565 deg Mean anomaly: 256.3892 deg Mean motion: 14.09971393 rev/day Decay rate: 1.907e-05 rev/day^2 Epoch rev: 70178 Checksum: 330
Satellite: OKEAN-0 Catalog number: 25860 Epoch time: 12361.94707804 Element set: 825 Inclination: 097.9671 deg RA of node: 320.9729 deg Eccentricity: 0.0001267 Arg of perigee: 073.6867 deg Mean anomaly: 318.6480 deg Mean motion: 14.74432512 rev/day Decay rate: 3.95e-06 rev/day^2 Epoch rev: 72297 Checksum: 329
Satellite: NOAA-16 Catalog number: 26536 Epoch time: 12366.48724740 Element set: 14 Inclination: 099.0714 deg RA of node: 051.3954 deg Eccentricity: 0.0010279 Arg of perigee: 248.2926 deg Mean anomaly: 111.7793 deg Mean motion: 14.12823408 rev/day Decay rate: 1.66e-06 rev/day^2 Epoch rev: 8090 Checksum: 299
Satellite: NOAA-17 Catalog number: 27453 Epoch time: 12366.46985964 Element set: 955 Inclination: 098.3263 deg RA of node: 023.3850 deg Eccentricity: 0.0011461 Arg of perigee: 300.2053 deg Mean anomaly: 059.8590 deg Mean motion: 14.24525324 rev/day Decay rate: 1.42e-06 rev/day^2 Epoch rev: 35045 Checksum: 297
Satellite: NOAA-18 Catalog number: 28654 Epoch time: 12366.45401203 Element set: 437 Inclination: 099.0757 deg RA of node: 326.4687 deg Eccentricity: 0.0014464 Arg of perigee: 321.8272 deg Mean anomaly: 038.2343 deg Mean motion: 14.11753060 rev/day Decay rate: 2.70e-06 rev/day^2 Epoch rev: 47398 Checksum: 303
Satellite: NOAA-19 Catalog number: 33591 Epoch time: 12366.43541024 Element set: 622 Inclination: 098.8839 deg RA of node: 303.9722 deg Eccentricity: 0.0013768 Arg of perigee: 183.3528 deg Mean anomaly: 176.8047 deg Mean motion: 14.11437089 rev/day Decay rate: 1.02e-06 rev/day^2 Epoch rev: 47399 Checksum: 324
/EX SB KEPS @ AMSAT $ORB12362.M Orbital Elements 12362.MISC
HR AMSAT ORBITAL ELEMENTS FOR MANNED AND MISCELLANEOUS SATELLITES FROM WA5QGD FORT WORTH,TX December 27, 2012 BID: ORB12362.M TO ALL RADIO AMATEURS BT
Satellite: HUBBLE Catalog number: 20580 Epoch time: 12362.31132391 Element set: 141 Inclination: 028.4705 deg RA of node: 319.1453 deg Eccentricity: 0.0003000 Arg of perigee: 311.6972 deg Mean anomaly: 048.3361 deg Mean motion: 15.03156628 rev/day Decay rate: 1.284e-05 rev/day^2 Epoch rev: 4380 Checksum: 242
Satellite: ISS Catalog number: 25544 Epoch time: 12363.10401242 Element set: 912 Inclination: 051.6479 deg RA of node: 238.2186 deg Eccentricity: 0.0016544 Arg of perigee: 095.7958 deg Mean anomaly: 057.4793 deg Mean motion: 15.51777715 rev/day Decay rate: 5.459e-05 rev/day^2 Epoch rev: 80813 Checksum: 318
Satellite: CO-58 Catalog number: 28895 Epoch time: 12362.17985392 Element set: 364 Inclination: 097.8889 deg RA of node: 219.6976 deg Eccentricity: 0.0016670 Arg of perigee: 264.5833 deg Mean anomaly: 095.3474 deg Mean motion: 14.60904750 rev/day Decay rate: 4.50e-06 rev/day^2 Epoch rev: 38183 Checksum: 366
Satellite: FALCON Catalog number: 30776 Epoch time: 12362.55058163 Element set: 516 Inclination: 035.4298 deg RA of node: 174.3924 deg Eccentricity: 0.0002416 Arg of perigee: 265.1589 deg Mean anomaly: 156.5171 deg Mean motion: 15.09194598 rev/day Decay rate: 3.607e-05 rev/day^2 Epoch rev: 31946 Checksum: 316
Satellite: MAST Catalog number: 31126 Epoch time: 12362.56168963 Element set: 643 Inclination: 097.8733 deg RA of node: 002.3721 deg Eccentricity: 0.0092469 Arg of perigee: 227.5598 deg Mean anomaly: 131.7743 deg Mean motion: 14.54391651 rev/day Decay rate: 2.49e-06 rev/day^2 Epoch rev: 30237 Checksum: 308
Satellite: CAPE1 Catalog number: 31130 Epoch time: 12362.47969768 Element set: 654 Inclination: 097.8856 deg RA of node: 358.6136 deg Eccentricity: 0.0100119 Arg of perigee: 242.3539 deg Mean anomaly: 116.7444 deg Mean motion: 14.53247590 rev/day Decay rate: 3.66e-06 rev/day^2 Epoch rev: 30184 Checksum: 316
Satellite: COMPASS Catalog number: 32787 Epoch time: 12362.20245811 Element set: 501 Inclination: 097.7771 deg RA of node: 059.1021 deg Eccentricity: 0.0016130 Arg of perigee: 145.5340 deg Mean anomaly: 247.7514 deg Mean motion: 14.84820188 rev/day Decay rate: 1.774e-05 rev/day^2 Epoch rev: 25244 Checksum: 277
Satellite: AAUSAT2 Catalog number: 32788 Epoch time: 12362.88321319 Element set: 493 Inclination: 097.7776 deg RA of node: 060.2675 deg Eccentricity: 0.0015703 Arg of perigee: 143.3045 deg Mean anomaly: 336.5119 deg Mean motion: 14.85219421 rev/day Decay rate: 1.828e-05 rev/day^2 Epoch rev: 25257 Checksum: 313
Satellite: DO-64 Catalog number: 32789 Epoch time: 12362.21391222 Element set: 513 Inclination: 097.7918 deg RA of node: 062.4657 deg Eccentricity: 0.0015185 Arg of perigee: 140.8960 deg Mean anomaly: 252.2941 deg Mean motion: 14.87295407 rev/day Decay rate: 3.106e-05 rev/day^2 Epoch rev: 25255 Checksum: 313
Satellite: CO-66 Catalog number: 32791 Epoch time: 12362.21028653 Element set: 490 Inclination: 097.7777 deg RA of node: 058.6745 deg Eccentricity: 0.0016531 Arg of perigee: 146.1556 deg Mean anomaly: 251.1134 deg Mean motion: 14.84087069 rev/day Decay rate: 1.377e-05 rev/day^2 Epoch rev: 25236 Checksum: 320
Satellite: RS-30 Catalog number: 32953 Epoch time: 12362.86335661 Element set: 449 Inclination: 082.4992 deg RA of node: 174.7090 deg Eccentricity: 0.0018062 Arg of perigee: 245.6324 deg Mean anomaly: 114.2872 deg Mean motion: 12.43030491 rev/day Decay rate: 1.0e-07 rev/day^2 Epoch rev: 20862 Checksum: 281
Satellite: PHARMSAT Catalog number: 35002 Epoch time: 12226.86484473 Element set: 78 Inclination: 040.4341 deg RA of node: 050.6671 deg Eccentricity: 0.0012079 Arg of perigee: 300.9773 deg Mean anomaly: 059.0492 deg Mean motion: 16.39309245 rev/day Decay rate: 7.728342e-02 rev/day^2 Epoch rev: 18355 Checksum: 302
Satellite: METEOR-M Catalog number: 35865 Epoch time: 12366.46585263 Element set: 67 Inclination: 098.6301 deg RA of node: 056.8097 deg Eccentricity: 0.0002243 Arg of perigee: 193.3198 deg Mean anomaly: 166.8571 deg Mean motion: 14.21877355 rev/day Decay rate: 4.5e-07 rev/day^2 Epoch rev: 18682 Checksum: 326
Satellite: RS-38 Catalog number: 35869 Epoch time: 12362.65729378 Element set: 54 Inclination: 098.6244 deg RA of node: 053.0450 deg Eccentricity: 0.0004072 Arg of perigee: 203.3480 deg Mean anomaly: 156.7510 deg Mean motion: 14.22106023 rev/day Decay rate: 2.0e-07 rev/day^2 Epoch rev: 17011 Checksum: 264
Satellite: JUGNU Catalog number: 37839 Epoch time: 12362.79092521 Element set: 300 Inclination: 019.9578 deg RA of node: 265.3179 deg Eccentricity: 0.0018681 Arg of perigee: 194.8543 deg Mean anomaly: 165.1269 deg Mean motion: 14.12115612 rev/day Decay rate: 6.20e-06 rev/day^2 Epoch rev: 6264 Checksum: 301
Satellite: SRMSAT Catalog number: 37841 Epoch time: 12361.83579839 Element set: 300 Inclination: 019.9697 deg RA of node: 279.7575 deg Eccentricity: 0.0012050 Arg of perigee: 147.6205 deg Mean anomaly: 212.4996 deg Mean motion: 14.10190459 rev/day Decay rate: 2.64e-06 rev/day^2 Epoch rev: 6241 Checksum: 308
Satellite: RAX-2 Catalog number: 37853 Epoch time: 12362.42321470 Element set: 383 Inclination: 101.7042 deg RA of node: 130.7904 deg Eccentricity: 0.0241069 Arg of perigee: 159.3520 deg Mean anomaly: 201.7624 deg Mean motion: 14.81934597 rev/day Decay rate: 5.559e-05 rev/day^2 Epoch rev: 6299 Checksum: 297
